GW6891 Weather Reports


Display with metric or nautical units.
time (UTC)temp
F
wind
direction
speed
MPH
gust
MPH
rain 1hr
in
rain 24hr
in
rain mn
in
humidity
%
barometer
mb
20260505094004 69 310 1.0 1.0 0.00 0.00 0.00 93 1017.9
20260505093504 69 310 0.0 0.0 0.00 0.00 0.00 93 1017.9
20260505093004 70 310 0.0 0.0 0.00 0.00 0.00 92 1017.9
20260505092504 70 310 1.0 1.0 0.00 0.00 0.00 92 1017.9
20260505092005 70 310 1.0 1.0 0.00 0.00 0.00 92 1017.6
20260505091505 70 310 0.0 0.0 0.00 0.00 0.00 91 1017.6
20260505091005 70 310 1.0 1.0 0.00 0.00 0.00 91 1017.9
20260505090504 70 309 0.0 0.0 0.00 0.00 0.00 90 1017.9
20260505090004 70 309 1.0 1.0 0.00 0.00 0.00 90 1017.6
20260505085506 71 310 1.0 1.0 0.00 0.00 0.00 89 1017.6
20260505085004 71 309 1.0 1.0 0.00 0.00 0.00 89 1017.6
20260505084504 71 309 0.0 0.0 0.00 0.00 0.00 88 1017.3
20260505084005 71 309 0.0 0.0 0.00 0.00 0.00 87 1017.3
20260505083505 72 305 0.0 0.0 0.00 0.00 0.00 87 1017.3
20260505083005 72 324 0.0 0.0 0.00 0.00 0.00 86 1017.3
20260505082505 72 324 0.0 0.0 0.00 0.00 0.00 85 1017.3
20260505082005 73 339 1.0 2.0 0.00 0.00 0.00 85 1016.9
20260505081504 73 332 1.0 2.0 0.00 0.00 0.00 84 1016.9
20260505081004 73 337 0.0 0.0 0.00 0.00 0.00 84 1017.3
20260505080504 73 332 0.0 0.0 0.00 0.00 0.00 83 1017.3
20260505080005 73 336 1.0 1.0 0.00 0.00 0.00 83 1016.9
20260505075504 73 332 1.0 3.0 0.00 0.00 0.00 82 1016.9
20260505075008 73 341 0.0 2.0 0.00 0.00 0.00 81 1016.9
20260505074504 73 337 1.0 2.0 0.00 0.00 0.00 80 1016.9
20260505074004 73 339 0.0 1.0 0.00 0.00 0.00 79 1016.9
20260505073504 74 326 0.0 0.0 0.00 0.00 0.00 78 1016.6
20260505073004 74 319 1.0 2.0 0.00 0.00 0.00 77 1016.6
20260505072504 74 3 3.0 3.0 0.00 0.00 0.00 77 1016.6
20260505072004 74 352 2.0 3.0 0.00 0.00 0.00 76 1016.6
20260505071505 75 337 2.0 3.0 0.00 0.00 0.00 75 1016.6
20260505071005 75 327 0.0 0.0 0.00 0.00 0.00 75 1016.6
20260505070505 75 342 1.0 2.0 0.00 0.00 0.00 74 1016.6
20260505070005 75 341 2.0 2.0 0.00 0.00 0.00 74 1016.3
20260505065505 76 348 3.0 3.0 0.00 0.00 0.00 73 1016.3
20260505065004 76 318 5.0 7.0 0.00 0.00 0.00 72 1016.3
20260505064505 76 341 3.0 3.0 0.00 0.00 0.00 72 1016.3
20260505064004 76 345 3.0 3.0 0.00 0.00 0.00 72 1016.3
20260505063505 77 354 4.0 5.0 0.00 0.00 0.00 72 1016.3
20260505063005 77 298 1.0 2.0 0.00 0.00 0.00 72 1016.3
20260505062504 78 327 1.0 2.0 0.00 0.00 0.00 72 1016.3
20260505062004 78 346 3.0 5.0 0.00 0.00 0.00 71 1016.3
20260505061505 78 7 1.0 2.0 0.00 0.00 0.00 71 1016.3
20260505061004 78 352 2.0 3.0 0.00 0.00 0.00 70 1016.3
20260505060505 79 14 5.0 6.0 0.00 0.00 0.00 69 1016.3
20260505060004 79 5 2.0 3.0 0.00 0.00 0.00 67 1015.9
20260505055504 80 349 2.0 3.0 0.00 0.00 0.00 64 1015.9
20260505055004 80 304 3.0 4.0 0.00 0.00 0.00 63 1015.9
20260505054504 80 327 0.0 0.0 0.00 0.00 0.00 64 1015.9
20260505054004 80 326 1.0 3.0 0.00 0.00 0.00 63 1015.9
20260505053508 81 9 1.0 1.0 0.00 0.00 0.00 62 1015.2
20260505053005 81 353 3.0 3.0 0.00 0.00 0.00 62 1015.2
20260505052504 81 324 0.0 0.0 0.00 0.00 0.00 62 1015.2
20260505052004 81 323 1.0 1.0 0.00 0.00 0.00 61 1015.9
20260505051504 81 234 2.0 2.0 0.00 0.00 0.00 60 1015.9
20260505051004 81 279 0.0 1.0 0.00 0.00 0.00 60 1016.3
20260505050505 81 317 0.0 0.0 0.00 0.00 0.00 60 1016.3
20260505041505 83 332 1.0 1.0 0.00 0.00 0.00 59 1015.2
20260505041004 82 264 1.0 1.0 0.00 0.00 0.00 59 1015.2
20260505040504 82 231 2.0 3.0 0.00 0.00 0.00 60 1015.2
20260505040005 82 319 2.0 3.0 0.00 0.00 0.00 61 1015.2
20260505035504 83 353 1.0 2.0 0.00 0.00 0.00 59 1015.2
20260505035004 83 237 2.0 3.0 0.00 0.00 0.00 59 1015.2
20260505034506 83 320 1.0 1.0 0.00 0.00 0.00 58 1015.2
20260505034005 82 322 1.0 2.0 0.00 0.00 0.00 59 1015.2
20260505033504 83 333 1.0 1.0 0.00 0.00 0.00 59 1015.2
20260505033004 83 273 0.0 0.0 0.00 0.00 0.00 59 1015.2
20260505032505 82 111 2.0 3.0 0.00 0.00 0.00 59 1015.9
20260505032004 82 129 3.0 3.0 0.00 0.00 0.00 61 1015.9
20260505031504 84 326 1.0 1.0 0.00 0.00 0.00 58 1015.9
20260505031004 85 297 0.0 1.0 0.00 0.00 0.00 57 1015.9
20260505030505 83 294 1.0 1.0 0.00 0.00 0.00 58 1015.9
20260505030005 84 229 0.0 1.0 0.00 0.00 0.00 56 1016.3
20260505025504 83 320 1.0 2.0 0.00 0.00 0.00 59 1016.3
20260505025004 82 301 1.0 1.0 0.00 0.00 0.00 59 1016.3
20260505024504 83 3 2.0 2.0 0.00 0.00 0.00 59 1016.6
20260505024006 85 331 2.0 3.0 0.00 0.00 0.00 60 1016.6
20260505023504 86 290 1.0 1.0 0.00 0.00 0.00 57 1016.6
20260505023006 87 305 1.0 1.0 0.00 0.00 0.00 59 1016.6
20260505022504 85 310 1.0 1.0 0.00 0.00 0.00 56 1016.9
20260505022004 84 296 1.0 1.0 0.00 0.00 0.00 58 1016.9
20260505021504 84 322 1.0 1.0 0.00 0.00 0.00 59 1016.9
20260505021004 82 271 1.0 2.0 0.00 0.00 0.00 61 1016.9
20260505020505 81 232 2.0 3.0 0.00 0.00 0.00 62 1016.9
20260505020004 80 275 0.0 0.0 0.00 0.00 0.00 64 1017.3
20260505015504 82 234 2.0 2.0 0.00 0.00 0.00 61 1017.3
20260505015005 83 270 1.0 2.0 0.00 0.00 0.00 60 1017.3
20260505014506 82 286 2.0 2.0 0.00 0.00 0.00 62 1017.3
20260505014005 81 279 1.0 1.0 0.00 0.00 0.00 65 1017.3
20260505013505 81 295 1.0 1.0 0.00 0.00 0.00 65 1017.3
20260505013004 81 275 0.0 0.0 0.00 0.00 0.00 66 1017.3
20260505012504 80 262 3.0 4.0 0.00 0.00 0.00 66 1017.6
20260505012004 81 291 1.0 1.0 0.00 0.00 0.00 63 1017.6
20260505011504 83 297 0.0 1.0 0.00 0.00 0.00 65 1017.6
20260505011005 82 294 1.0 1.0 0.00 0.00 0.00 64 1017.9
20260505010504 80 266 1.0 1.0 0.00 0.00 0.00 68 1017.9
20260505010005 79 261 0.0 0.0 0.00 0.00 0.00 69 1017.9
20260505005506 79 286 0.0 2.0 0.00 0.00 0.00 70 1017.9
20260505005004 83 274 1.0 1.0 0.00 0.00 0.00 64 1017.9
20260505004504 83 289 0.0 1.0 0.00 0.00 0.00 66 1017.9
20260505004005 80 262 1.0 2.0 0.00 0.00 0.00 69 1017.9
20260505003504 81 288 1.0 1.0 0.00 0.00 0.00 68 1018.3
20260505003005 80 303 0.0 0.0 0.00 0.00 0.00 71 1018.3
20260505002504 78 278 0.0 0.0 0.00 0.00 0.00 75 1019.0
20260505002004 77 285 1.0 1.0 0.00 0.00 0.00 74 1019.0
20260505001504 80 251 1.0 1.0 0.00 0.00 0.00 70 1019.0
20260505001005 78 294 0.0 0.0 0.00 0.00 0.00 73 1019.0
20260505000505 79 255 0.0 0.0 0.00 0.00 0.00 71 1019.0
20260505000005 79 313 1.0 1.0 0.00 0.00 0.00 72 1019.0
20260504235505 81 273 1.0 1.0 0.00 0.00 0.00 70 1019.0
20260504235004 80 277 0.0 0.0 0.00 0.00 0.00 69 1019.0
20260504234505 79 283 1.0 1.0 0.00 0.00 0.00 75 1019.0
20260504234007 79 327 0.0 1.0 0.00 0.00 0.00 76 1019.0
20260504233505 78 296 1.0 1.0 0.00 0.00 0.00 77 1019.0
20260504233004 76 300 2.0 2.0 0.00 0.00 0.00 77 1019.0
20260504232504 75 274 1.0 1.0 0.00 0.00 0.00 81 1019.3
20260504232005 75 296 0.0 1.0 0.00 0.00 0.00 82 1019.3
20260504231505 74 291 0.0 1.0 0.00 0.00 0.00 84 1019.3
20260504231004 74 278 0.0 0.0 0.00 0.00 0.00 86 1019.3
20260504230505 72 296 1.0 1.0 0.00 0.00 0.00 87 1019.3
20260504230005 71 294 1.0 1.0 0.00 0.00 0.00 90 1019.3
20260504225504 69 270 0.0 1.0 0.00 0.00 0.00 93 1019.3
20260504225004 68 267 1.0 1.0 0.00 0.00 0.00 94 1019.3
20260504224504 68 275 0.0 0.0 0.00 0.00 0.00 98 1019.3
20260504224004 67 272 0.0 1.0 0.00 0.00 0.00 99 1019.3
20260504223504 67 265 0.0 0.0 0.00 0.00 0.00 99 1019.3
20260504223006 66 280 0.0 1.0 0.00 0.00 0.00 99 1019.3
20260504222505 66 235 2.0 2.0 0.00 0.00 0.00 99 1019.3
20260504222004 66 272 0.0 1.0 0.00 0.00 0.00 99 1019.3
20260504221504 66 271 0.0 1.0 0.00 0.00 0.00 99 1019.3
20260504221004 65 287 0.0 1.0 0.00 0.00 0.00 99 1019.3
20260504220506 66 270 1.0 1.0 0.00 0.00 0.00 99 1019.3
20260504220004 65 279 0.0 0.0 0.00 0.00 0.00 99 1019.0
20260504215506 65 276 0.0 1.0 0.00 0.00 0.00 99 1019.0
20260504215004 65 268 1.0 2.0 0.00 0.00 0.00 99 1019.0
20260504214504 65 274 0.0 0.0 0.00 0.00 0.00 99 1018.3
20260504214004 64 265 1.0 1.0 0.00 0.00 0.00 99 1018.3
20260504213505 64 268 0.0 0.0 0.00 0.00 0.00 99 1018.3
20260504213004 64 256 0.0 0.0 0.00 0.00 0.00 99 1018.3
20260504212509 64 258 0.0 0.0 0.00 0.00 0.00 99 1019.0
20260504212007 64 258 0.0 0.0 0.00 0.00 0.00 99 1019.0
20260504211504 63 258 0.0 1.0 0.00 0.00 0.00 99 1019.0
20260504211005 64 258 0.0 0.0 0.00 0.00 0.00 99 1019.0
20260504210504 63 258 0.0 0.0 0.00 0.00 0.00 99 1019.0
20260504210004 63 258 0.0 0.0 0.00 0.00 0.00 99 1018.3
20260504205505 62 258 0.0 0.0 0.00 0.00 0.00 99 1018.3
20260504205004 63 258 0.0 0.0 0.00 0.00 0.00 99 1018.3
20260504204504 63 258 0.0 0.0 0.00 0.00 0.00 99 1018.3
20260504204004 62 258 0.0 0.0 0.00 0.00 0.00 99 1018.3
20260504203505 62 258 0.0 0.0 0.00 0.00 0.00 99 1017.9
20260504203004 62 258 0.0 0.0 0.00 0.00 0.00 99 1017.9
20260504202504 62 258 0.0 0.0 0.00 0.00 0.00 99 1017.9
20260504202005 62 259 0.0 0.0 0.00 0.00 0.00 99 1017.9
20260504201505 62 259 0.0 0.0 0.00 0.00 0.00 99 1017.9
20260504201006 62 259 1.0 1.0 0.00 0.00 0.00 99 1017.9
20260504200504 62 259 1.0 1.0 0.00 0.00 0.00 99 1017.9
20260504200004 62 259 0.0 0.0 0.00 0.00 0.00 99 1017.6
20260504195504 63 259 0.0 1.0 0.00 0.00 0.00 99 1017.6
20260504195005 63 259 0.0 0.0 0.00 0.00 0.00 99 1017.6
20260504194504 63 259 0.0 0.0 0.00 0.00 0.00 99 1017.6
20260504194004 63 259 0.0 0.0 0.00 0.00 0.00 99 1017.6
20260504193505 63 259 0.0 0.0 0.00 0.00 0.00 99 1017.3
20260504193004 63 259 0.0 0.0 0.00 0.00 0.00 99 1017.3
20260504192505 63 259 0.0 0.0 0.00 0.00 0.00 99 1017.3
20260504192004 63 259 0.0 0.0 0.00 0.00 0.00 99 1017.3
20260504191504 63 259 2.0 2.0 0.00 0.00 0.00 99 1017.3
20260504191008 62 259 0.0 0.0 0.00 0.00 0.00 99 1017.3
20260504190505 62 259 0.0 0.0 0.00 0.00 0.00 99 1017.3
20260504190004 62 259 0.0 0.0 0.00 0.00 0.00 99 1017.3
20260504185505 62 259 0.0 0.0 0.00 0.00 0.00 99 1017.3
20260504185004 62 259 0.0 0.0 0.00 0.00 0.00 99 1017.3
20260504184505 62 259 0.0 0.0 0.00 0.00 0.00 99 1017.3
20260504184005 62 259 0.0 0.0 0.00 0.00 0.00 99 1017.3
20260504183505 62 259 0.0 0.0 0.00 0.00 0.00 99 1017.3
20260504183005 62 259 0.0 0.0 0.00 0.00 0.00 99 1017.3
20260504182505 62 259 0.0 0.0 0.00 0.00 0.00 99 1017.3
20260504182005 62 259 0.0 0.0 0.05 0.00 0.00 99 1017.3
20260504181508 62 259 0.0 0.0 0.05 0.00 0.00 99 1017.3
20260504181005 62 259 0.0 0.0 0.00 0.00 0.00 99 1017.3
20260504180504 62 259 0.0 0.0 0.00 0.00 0.00 99 1017.3
20260504180005 63 259 0.0 0.0 0.00 0.00 0.00 99 1017.3
20260504175504 63 259 0.0 0.0 0.00 0.00 0.00 99 1017.3
20260504175004 63 259 0.0 0.0 0.00 0.00 0.00 99 1017.3
20260504174505 63 259 0.0 0.0 0.00 0.00 0.00 99 1017.3
20260504174004 63 259 1.0 1.0 0.00 0.00 0.00 99 1017.3
20260504173504 63 259 0.0 0.0 0.00 0.00 0.00 99 1017.3
20260504173005 63 259 0.0 0.0 0.00 0.00 0.00 99 1017.3
20260504172505 64 259 0.0 1.0 0.00 0.00 0.00 99 1017.3
20260504172004 63 259 0.0 0.0 0.00 0.00 0.00 99 1017.3
20260504171505 63 259 0.0 0.0 0.00 0.00 0.00 99 1017.3
20260504171005 63 259 0.0 0.0 0.00 0.00 0.00 99 1017.3
20260504170504 64 259 0.0 0.0 0.00 0.00 0.00 99 1017.3
20260504151005 64 258 0.0 0.0 0.00 0.00 0.00 99 1017.6
20260504150505 64 258 0.0 0.0 0.00 0.00 0.00 99 1017.6
20260504141005 65 259 0.0 0.0 0.00 0.00 0.00 99 1017.9
20260504140504 65 259 0.0 0.0 0.00 0.00 0.00 99 1017.9
20260504130505 66 260 0.0 0.0 0.00 0.00 0.00 99 1019.0
20260504110505 66 268 0.0 1.0 0.00 0.00 0.00 99 1019.3
20260504100504 67 270 1.0 1.0 0.00 0.00 0.00 99 1019.3